Weather in Novosil

Russia / Oryol Oblast     52°58′28″N   37°02′37″E
temp.,
°C
wind,
m/s
gust,
m/s
humid.,
%
clouds,
%
prec.,
mm/h
press.,
hPa
HPBL,
m
12 may, wed
wed1200:00+6ese39850 0.0 1025197
03:00+5e33925 0.0 102549
06:00+6ene38905 0.0 1025202
09:00+11ene466869 0.0 1024673
12:00+12e5667100 0.2 10221364
15:00+10ne3489100 2.1 1020362
18:00+10e348211 0.2 1018487
21:00+7e48935 0.2 1018171
13 may, thu
thu1300:00+7e5139350 0.0 1017296
03:00+9ese61491100 0.1 1017453
06:00+9ese71493100 0.1 1016477
09:00+9ese5109597 2.4 1016441
12:00+12se6888100 0.8 1015673
15:00+14sse687757 1.4 10151053
18:00+15sse4676100 0.2 1014915
21:00+10sse3491100 0.3 101550
14 may, fri
fri1400:00+9se3494100 0.0 101659
03:00+9se3595100 0.0 101669
06:00+10ese379372 0.0 1016166
09:00+15ese5986100 0.9 1014444
12:00+20se797246 0.3 10131064
15:00+22sse71170100 1.1 10121373
18:00+20sse71278100 1.1 1010522
21:00+16sse41292100 4.9 1011230
15 may, sat
sat1500:00+15sse41293100 0.0 1011281
03:00+14ene489497 7.3 1010138
06:00+15se51193100 0.2 1010280
09:00+16se61093100 2.4 1010482
12:00+21ssw576923 0.4 1009969
15:00+21ssw696631 1.7 10101435
18:00+18sw5878100 1.0 1011775
21:00+14ssw3591100 1.3 101192
16 may, sun
sun1600:00+13sw349334 0.0 101254
03:00+12sw229476 0.0 101325
06:00+12sw1190100 0.0 101335
09:00+17sw23740 0.0 1014540
12:00+20sw236226 0.0 10141198
15:00+21ssw2357100 0.0 10131746
18:00+21ssw126513 0.0 1013860
21:00+16ene227478 0.0 101312